Date,Time,Air Temperature,Dewpoint,Windchill,Heat Index,RH,3m Max Wind Speed,3m Mean Wind Speed,3m Wind Direction,Rain,Solar Radiation
,,F,F,F,F,%,MPH,MPH,deg,in,MJ/m^2
2024-04-11,21:30,42.9,15,,42.9,32.0,6.1,4.9,142,0.0,0
2024-04-11,21:35,42.7,15,,42.7,32.3,7.1,4.7,138,0.0,0
2024-04-11,21:40,42.5,15,,42.5,32.5,6.4,4.4,153,0.0,0
2024-04-11,21:45,43,15,,43,31.8,8,4.7,126,0.0,0
2024-04-11,21:50,42.8,15.8,,42.8,33.2,9.2,5.3,119,0.0,0
2024-04-11,21:55,43.8,16.4,,43.8,32.8,9.7,6.2,126,0.0,0
2024-04-11,22:00,44.6,16.2,,44.6,31.5,9.1,6,138,0.0,0
2024-04-11,22:05,44.1,16.5,,44.1,32.6,6.1,4.9,136,0.0,0
2024-04-11,22:10,43.5,16.2,,43.5,32.9,6.2,4.5,135,0.0,0
2024-04-11,22:15,43,15.9,,43,33.1,6,4.9,131,0.0,0
2024-04-11,22:20,42,15.8,,42,34.1,4.6,3.6,121,0.0,0
2024-04-11,22:25,42.1,15.8,,42.1,34.1,4.3,1.8,93,0.0,0
2024-04-11,22:30,42,15.9,,42,34.4,2,1.1,130,0.0,0
2024-04-11,22:35,42.5,16.4,,42.5,34.4,4.5,2.9,136,0.0,0
2024-04-11,22:40,41.3,15.8,,41.3,35.2,4.8,3.1,115,0.0,0
2024-04-11,22:45,41.8,16.5,,41.8,35.6,4,2.5,121,0.0,0
2024-04-11,22:50,41.5,16.5,,41.5,36.0,5.5,3,137,0.0,0
2024-04-11,22:55,40.8,16.5,,40.8,37,6.6,4.3,155,0.0,0
2024-04-11,23:00,41.5,16.5,,41.5,36.0,6,4,161,0.0,0
2024-04-11,23:05,41.6,16.5,,41.6,35.9,7,4.4,132,0.0,0
2024-04-11,23:10,41.3,16.8,,41.3,36.8,6.6,4.7,126,0.0,0
2024-04-11,23:15,41,17.2,,41,37.8,7.4,4.1,129,0.0,0
2024-04-11,23:20,41,17.2,,41,37.9,7,4.5,153,0.0,0
2024-04-11,23:25,40.8,16.6,,40.8,37.2,10.3,4.9,170,0.0,0
2024-04-11,23:30,42.7,16.5,,42.7,34.4,9.1,5.9,134,0.0,0
2024-04-11,23:35,42.8,16.5,,42.8,34.3,7.9,4.6,118,0.0,0
2024-04-11,23:40,42.3,16.5,,42.3,35.0,6.6,3.4,141,0.0,0
2024-04-11,23:45,42.4,16.5,,42.4,34.8,4.5,2.8,119,0.0,0
2024-04-11,23:50,41.6,16.5,,41.6,35.8,4.2,2.8,128,0.0,0
2024-04-11,23:55,40.2,16.1,,40.2,37.1,4.9,3.7,138,0.0,0
2024-04-12,00:00,40.4,15.8,,40.4,36.5,4.2,3.3,129,0.0,0
2024-04-12,00:05,40.6,15.8,,40.6,36.2,5.1,4,133,0.0,0
2024-04-12,00:10,39.3,15.8,,39.3,38.0,5.3,3.8,127,0.0,0
2024-04-12,00:15,38.7,15.8,,38.7,38.9,5.2,3.6,119,0.0,0
2024-04-12,00:20,39.3,16.4,,39.3,38.9,8.1,4.9,122,0.0,0
2024-04-12,00:25,39.1,16.5,,39.1,39.6,5.4,3.7,132,0.0,0
2024-04-12,00:30,39.8,16.6,,39.8,38.7,5.6,3.1,120,0.0,0
2024-04-12,00:35,39.4,16.6,,39.4,39.3,3.3,1.5,318,0.0,0
2024-04-12,00:40,39.1,16.8,,39.1,40.1,4.1,3,352,0.0,0
2024-04-12,00:45,38.9,16.8,,38.9,40.2,7.3,4.4,49,0.0,0
2024-04-12,00:50,38.9,17.2,,38.9,41.1,4.6,1.6,60,0.0,0
2024-04-12,00:55,39.2,17.2,,39.2,40.6,4.7,1.9,18,0.0,0
2024-04-12,01:00,38.7,17.2,,38.7,41.3,3.6,1.7,316,0.0,0
2024-04-12,01:05,38.7,17.2,,38.7,41.3,3.7,1.6,27,0.0,0
2024-04-12,01:10,38.9,17.2,,38.9,41.0,4.3,1.8,131,0.0,0
2024-04-12,01:15,38.7,17.2,,38.7,41.5,4.1,1.8,23,0.0,0
2024-04-12,01:20,37.9,17.2,,37.9,42.7,2.3,1.5,349,0.0,0
2024-04-12,01:25,38,17.2,,38,42.5,3.2,1.4,321,0.0,0
2024-04-12,01:30,38.6,17.2,,38.6,41.6,6.3,4.5,12,0.0,0
2024-04-12,01:35,36.4,17.1,,36.4,45.1,5.9,2.3,350,0.0,0
2024-04-12,01:40,37,17.2,,37,44.2,4.1,2.9,355,0.0,0
2024-04-12,01:45,37.6,17.2,,37.6,43.2,3.9,2.9,350,0.0,0
2024-04-12,01:50,37.4,17.2,,37.4,43.5,3.7,2.9,351,0.0,0
2024-04-12,01:55,37.9,17.2,,37.9,42.6,3.4,1.5,77,0.0,0
2024-04-12,02:00,37.4,17.2,,37.4,43.6,4.2,1.8,60,0.0,0
2024-04-12,02:05,36.2,17.2,,36.2,45.6,2,1.2,52,0.0,0
2024-04-12,02:10,36.2,17.2,,36.2,45.6,2.8,2.3,3,0.0,0
2024-04-12,02:15,33.9,16.9,,33.9,49.4,5.4,3.2,237,0.0,0
2024-04-12,02:20,34.8,16.4,,34.8,46.6,3.7,3.2,276,0.0,0
2024-04-12,02:25,34.7,16.5,,34.7,46.9,4.1,2.6,318,0.0,0
2024-04-12,02:30,34.2,16.5,,34.2,47.9,3.6,2,294,0.0,0
2024-04-12,02:35,33.2,16.1,,33.2,49.0,10.2,3.2,214,0.0,0
2024-04-12,02:40,31.6,15.5,,31.6,50.8,9.4,3.2,211,0.0,0
2024-04-12,02:45,33.4,15.8,,33.4,48.0,4.3,1.3,207,0.0,0
2024-04-12,02:50,33.1,16.1,,33.1,49.2,4.5,2.5,203,0.0,0
2024-04-12,02:55,31.4,15.6,,31.4,51.7,3.5,2.2,160,0.0,0
2024-04-12,03:00,31.2,15.3,,31.2,51.4,3.3,1.7,177,0.0,0
2024-04-12,03:05,30.8,15,,30.8,51.6,3.4,1.6,221,0.0,0
2024-04-12,03:10,31,15,,31,51.1,2.6,1.5,219,0.0,0
2024-04-12,03:15,30.8,15,,30.8,51.5,2.9,1.9,199,0.0,0
2024-04-12,03:20,31.4,15,,31.4,50.4,4.7,2.4,237,0.0,0
2024-04-12,03:25,30.1,15.2,,30.1,53.5,4.7,3.5,252,0.0,0
2024-04-12,03:30,30.2,14.7,,30.2,52.1,5.2,3.7,267,0.0,0
2024-04-12,03:35,31.2,15.9,,31.2,52.7,4.2,3,292,0.0,0
2024-04-12,03:40,29.5,15.6,,29.5,55.8,3.4,1.5,8,0.0,0
2024-04-12,03:45,29.1,15.2,,29.1,55.6,1.8,0.9,100,0.0,0
2024-04-12,03:50,29.5,15.2,,29.5,54.8,2,1.1,3,0.0,0
2024-04-12,03:55,29.8,15.8,,29.8,55.4,2.8,1.6,330,0.0,0
2024-04-12,04:00,30.2,15.8,,30.2,54.6,4.3,2.6,316,0.0,0
2024-04-12,04:05,29,15.8,,29,57.4,5,3.1,286,0.0,0
2024-04-12,04:10,29.1,15.5,,29.1,56.3,4,1.9,205,0.0,0
2024-04-12,04:15,28.8,15,,28.8,56.0,4.5,2.1,142,0.0,0
2024-04-12,04:20,29.9,15.5,,29.9,54.4,3,2.1,24,0.0,0
2024-04-12,04:25,29.9,15.9,,29.9,55.6,5.3,2.6,68,0.0,0
2024-04-12,04:30,28.6,15.8,,28.6,58.2,4.7,2.4,161,0.0,0
2024-04-12,04:35,27.9,15.2,,27.9,58.4,3.3,1.9,203,0.0,0
2024-04-12,04:40,29.2,15.6,,29.2,56.5,3.9,2.3,204,0.0,0
2024-04-12,04:45,30.6,15.8,,30.6,53.7,5.7,2.9,17,0.0,0
2024-04-12,04:50,31.4,16.7,,31.4,54.1,9.2,5.6,37,0.0,0
2024-04-12,04:55,30,16.7,,30,57.2,4.6,2.4,121,0.0,0
2024-04-12,05:00,30.8,16.5,,30.8,54.9,3.9,2.3,93,0.0,0
2024-04-12,05:05,30.8,16.5,,30.8,54.9,3.4,1.6,103,0.0,0
2024-04-12,05:10,30.7,16.7,,30.7,55.6,3.2,2.5,328,0.0,0
2024-04-12,05:15,29.4,16.5,,29.4,58.3,4.6,2.8,326,0.0,0
2024-04-12,05:20,28.6,17,,28.6,61.2,4.1,1.9,287,0.0,0
2024-04-12,05:25,28.8,16.7,,28.8,60.0,4,2.2,310,0.0,0
2024-04-12,05:30,29.1,16.8,,29.1,59.6,3.4,1.9,321,0.0,0
2024-04-12,05:35,29.3,17,,29.3,59.6,2.6,1.4,261,0.0,0
2024-04-12,05:40,31,17.2,,31,56.2,2.7,1.3,189,0.0,0
2024-04-12,05:45,32.2,17.2,,32.2,53.5,4,2.3,107,0.0,0
2024-04-12,05:50,32.9,17.2,,32.9,52.1,3.9,2.5,116,0.0,0
2024-04-12,05:55,33.1,17.8,,33.1,53.0,2.1,1.1,52,0.0,0
2024-04-12,06:00,32.6,17.8,,32.6,54.1,4.2,1.8,352,0.0,0
2024-04-12,06:05,31.2,17.5,,31.2,56.4,2.8,0.8,212,0.0,0.00006
2024-04-12,06:10,31.6,17.5,,31.6,55.6,2.6,0.9,153,0.0,0.00042
2024-04-12,06:15,31.4,17.2,,31.4,55.4,3.8,1.8,55,0.0,0.00096
2024-04-12,06:20,28.8,17.2,,28.8,61.4,4,2.7,355,0.0,0.00174
2024-04-12,06:25,28.6,17.2,,28.6,62.0,3,1.9,4,0.0,0.00246
2024-04-12,06:30,29.1,17.2,,29.1,60.7,1.7,0.9,18,0.0,0.00324
2024-04-12,06:35,28.6,17.2,,28.6,62.1,2.4,1.2,204,0.0,0.00426
2024-04-12,06:40,30.1,17.2,,30.1,58.4,2.3,1.5,218,0.0,0.01242
2024-04-12,06:45,30.5,17.8,,30.5,58.9,1.8,1.2,271,0.0,0.01638
2024-04-12,06:50,31.7,18.3,,31.7,57.2,2.9,1.7,343,0.0,0.0198
2024-04-12,06:55,33,18.6,,33,55.1,2.5,1.4,349,0.0,0.02328
2024-04-12,07:00,33.9,19.4,,33.9,54.8,2.6,1.7,313,0.0,0.02694
2024-04-12,07:05,33.9,20,,33.9,56.3,3.1,2.1,242,0.0,0.0309
2024-04-12,07:10,34.8,20.5,,34.8,55.5,3,2.1,275,0.0,0.03492
2024-04-12,07:15,36.2,21,,36.2,53.6,3.8,2.6,328,0.0,0.03906
2024-04-12,07:20,36.6,21.6,,36.6,54.3,5.1,3.3,339,0.0,0.0435
2024-04-12,07:25,35.9,21.6,,35.9,55.7,6,3.8,340,0.0,0.048
2024-04-12,07:30,36.4,21.6,,36.4,54.7,6.4,4.2,323,0.0,0.05256
2024-04-12,07:35,37.4,21.7,,37.4,52.9,3.7,2.8,318,0.0,0.0573
2024-04-12,07:40,38.4,22.2,,38.4,51.8,3.8,2.6,319,0.0,0.06216
2024-04-12,07:45,39.4,22.3,,39.4,50.1,4.8,2.8,319,0.0,0.0672
2024-04-12,07:50,39.7,22.8,,39.7,50.3,4.5,3.3,319,0.0,0.07236
2024-04-12,07:55,40.8,23.2,,40.8,49.2,6,4.5,335,0.0,0.07752
2024-04-12,08:00,41.6,23.6,,41.6,48.5,6,4.3,337,0.0,0.08268
2024-04-12,08:05,42.7,24.1,,42.7,47.4,4.8,3,324,0.0,0.08784
2024-04-12,08:10,43.6,24.8,,43.6,47.3,5.2,3.4,320,0.0,0.09318
2024-04-12,08:15,44,25.1,,44,47.0,4.9,3.5,324,0.0,0.09852
2024-04-12,08:20,45.1,25.5,,45.1,45.8,4.6,3.2,316,0.0,0.10374
2024-04-12,08:25,46.3,26.1,,46.3,45.0,4.2,3.1,284,0.0,0.10902
2024-04-12,08:30,47.4,26.1,,47.4,43.1,4.2,3.1,329,0.0,0.11454
2024-04-12,08:35,48.1,26.4,,48.1,42.6,5.2,3.8,312,0.0,0.12
2024-04-12,08:40,49.4,27,,49.4,41.5,5.3,3.8,293,0.0,0.12522
2024-04-12,08:45,49.6,26.9,,49.6,41.0,6.2,4,310,0.0,0.13038
2024-04-12,08:50,50,25.5,,50,38.1,5.7,4,320,0.0,0.13554
2024-04-12,08:55,50.9,25.1,,50.9,36.3,5.8,4,318,0.0,0.14082
2024-04-12,09:00,51.8,25.7,,51.8,35.9,6.5,3.2,315,0.0,0.14586
2024-04-12,09:05,51.9,26,,51.9,36.3,5.6,3.9,293,0.0,0.15084
2024-04-12,09:10,52.4,26.6,,52.4,36.6,6,3.5,323,0.0,0.15588
2024-04-12,09:15,53.3,26.5,,53.3,35.1,6.5,2.8,274,0.0,0.16092
2024-04-12,09:20,53.3,26.8,,53.3,35.7,7.3,3.3,334,0.0,0.16566
2024-04-12,09:25,55,27.6,,55,34.8,4.3,2.6,319,0.0,0.1704
2024-04-12,09:30,55.3,27.9,,55.3,34.8,7.1,2.9,334,0.0,0.17526
2024-04-12,09:35,56,28.3,,56,34.4,6.2,3.2,307,0.0,0.1797
2024-04-12,09:40,56.7,27.9,,56.7,33.0,5.6,3.5,305,0.0,0.1842
2024-04-12,09:45,57.3,27.8,,57.3,32.2,5.7,4.2,288,0.0,0.18864
2024-04-12,09:50,57.5,27.8,,57.5,32.0,6.6,3.6,307,0.0,0.19278
2024-04-12,09:55,58.9,27.5,,58.9,30.0,5.5,2.6,321,0.0,0.19704
2024-04-12,10:00,59.7,27.5,,59.7,29.2,5.2,2.8,4,0.0,0.20136
2024-04-12,10:05,59.4,27,,59.4,28.9,8.2,5.5,340,0.0,0.20544
2024-04-12,10:10,59.9,26.6,,59.9,27.8,8,4.3,324,0.0,0.20934
2024-04-12,10:15,61.1,27,,61.1,27.1,8.5,3.7,333,0.0,0.2133
2024-04-12,10:20,61.5,26.9,,61.5,26.7,7.5,3.9,336,0.0,0.21714
2024-04-12,10:25,62.1,26.8,,62.1,26,8.3,4.7,255,0.0,0.22074
2024-04-12,10:30,63.2,27.2,,63.2,25.4,10.2,5.5,280,0.0,0.2241
2024-04-12,10:35,62.7,27.1,,62.7,25.7,9.8,5.2,267,0.0,0.22734
2024-04-12,10:40,62.7,26.8,,62.7,25.5,10.1,5.9,304,0.0,0.23088
2024-04-12,10:45,62.9,26.9,,62.9,25.4,8.8,3.6,313,0.0,0.23412
2024-04-12,10:50,64.4,27.1,,64.4,24.3,9.6,3.8,305,0.0,0.23736
2024-04-12,10:55,64.2,27.2,,64.2,24.5,9.5,5.8,314,0.0,0.24042
2024-04-12,11:00,64.9,27.4,,64.9,24.2,10.2,6.9,279,0.0,0.24336
2024-04-12,11:05,65.1,27.5,,65.1,24.1,9,6.4,262,0.0,0.24618
2024-04-12,11:10,65.2,27.6,,65.2,24.2,11.4,6.3,245,0.0,0.24888
2024-04-12,11:15,65.2,27.2,,65.2,23.8,5.8,2.8,164,0.0,0.2514
2024-04-12,11:20,65.3,27.4,,65.3,23.9,9.7,6.4,140,0.0,0.25392
2024-04-12,11:25,65.9,27.4,,65.9,23.3,6.2,3.3,154,0.0,0.25608
2024-04-12,11:30,65.7,27.6,,65.7,23.8,12.4,5.4,225,0.0,0.2583
2024-04-12,11:35,66.4,27.5,,66.4,23.1,11.7,5.9,304,0.0,0.26004
2024-04-12,11:40,66.3,27.7,,66.3,23.4,15.4,8.2,303,0.0,0.26178
2024-04-12,11:45,67.3,27.7,,67.3,22.5,14.7,7.2,302,0.0,0.26376
2024-04-12,11:50,67.6,27.9,,67.6,22.5,16.8,7.8,277,0.0,0.26544
2024-04-12,11:55,69.3,28.2,,69.3,21.5,16.9,8.7,264,0.0,0.26736
2024-04-12,12:00,68.8,27.9,,68.8,21.6,21,11.7,273,0.0,0.26844
2024-04-12,12:05,69.4,27.9,,69.4,21.1,17.8,9.5,261,0.0,0.2697
2024-04-12,12:10,69.8,27.9,,69.8,20.9,16.5,10.6,240,0.0,0.26988
2024-04-12,12:15,68.9,27.5,,68.9,21.1,17.8,10.9,239,0.0,0.27234
2024-04-12,12:20,69.6,27.1,,69.6,20.2,17.3,10.2,196,0.0,0.27366
2024-04-12,12:25,68.8,26.2,,68.8,20.1,18.3,9.9,207,0.0,0.27414
2024-04-12,12:30,69.2,26,,69.2,19.6,16.8,10.1,234,0.0,0.27528
2024-04-12,12:35,69.4,26.1,,69.4,19.7,22.8,13.5,267,0.0,0.27456
2024-04-12,12:40,69,25.1,,69,19.1,23.4,12.3,262,0.0,0.27558
2024-04-12,12:45,70.8,25.2,,70.8,18.1,22.7,12.4,244,0.0,0.27576
2024-04-12,12:50,70.6,25.8,,70.6,18.5,21.3,13.4,232,0.0,0.27534
2024-04-12,12:55,70.4,25.3,,70.4,18.4,23.4,13.6,245,0.0,0.27558
2024-04-12,13:00,69.2,24.9,,69.2,18.8,20.5,12.2,265,0.0,0.27486
2024-04-12,13:05,70,24.9,,70,18.3,17.6,10.1,255,0.0,0.27534
2024-04-12,13:10,70.5,25.1,,70.5,18.1,23.4,14,256,0.0,0.27444
2024-04-12,13:15,70.2,24.6,,70.2,17.9,18.8,10.6,240,0.0,0.27432
2024-04-12,13:20,70.6,24.5,,70.6,17.7,21,11,236,0.0,0.27342
2024-04-12,13:25,70.6,24.2,,70.6,17.4,24.1,13.2,256,0.0,0.27186
2024-04-12,13:30,69.8,23.5,,69.8,17.4,19.1,13.5,262,0.0,0.27168
2024-04-12,13:35,71,23.4,,71,16.6,19.4,11.6,237,0.0,0.2703
2024-04-12,13:40,71,22.2,,71,15.8,18.9,13,225,0.0,0.2694
2024-04-12,13:45,71.3,23,,71.3,16.1,18.3,8.8,234,0.0,0.26778
2024-04-12,13:50,70.3,22.7,,70.3,16.5,19.2,10.8,232,0.0,0.2655
2024-04-12,13:55,71.4,23.5,,71.4,16.5,18.7,11.3,252,0.0,0.2634
2024-04-12,14:00,71.9,23.2,,71.9,16.0,21.7,14.3,250,0.0,0.26202
2024-04-12,14:05,70.4,22.4,,70.4,16.2,24.4,17.2,262,0.0,0.26094
2024-04-12,14:10,71,22.3,,71,15.9,23.4,14.8,249,0.0,0.25914
2024-04-12,14:15,70.6,22.6,,70.6,16.3,18.9,11.9,242,0.0,0.25578
2024-04-12,14:20,70.8,22.3,,70.8,15.9,17.2,7.4,222,0.0,0.25326
2024-04-12,14:25,71.3,22.4,,71.3,15.7,22.5,13.8,236,0.0,0.25146
2024-04-12,14:30,70.6,22.2,,70.6,16.0,14.6,8,276,0.0,0.2502
2024-04-12,14:35,70.5,23,,70.5,16.6,16.9,9.9,247,0.0,0.246
2024-04-12,14:40,71.8,23.1,,71.8,16.0,17.9,10.9,263,0.0,0.24348
2024-04-12,14:45,71.8,22.5,,71.8,15.6,17.4,12.6,247,0.0,0.24162
2024-04-12,14:50,72.6,22.6,,72.6,15.2,25.2,15.9,210,0.0,0.23736
2024-04-12,14:55,72,22.6,,72,15.6,17.9,11.6,212,0.0,0.23508
2024-04-12,15:00,70.6,23.1,,70.6,16.6,19.3,8.4,209,0.0,0.21618
2024-04-12,15:05,71.6,22.4,,71.6,15.6,18.1,9.7,257,0.0,0.2433
2024-04-12,15:10,72.3,22.5,,72.3,15.3,29.4,17.9,249,0.0,0.23616
2024-04-12,15:15,71.9,22.3,,71.9,15.4,26.1,15.1,219,0.0,0.2271
2024-04-12,15:20,72.2,21.6,,72.2,14.8,18.7,11.6,222,0.0,0.2241
2024-04-12,15:25,71.7,21.2,,71.7,14.8,21.1,12.4,226,0.0,0.22434
2024-04-12,15:30,73,21.1,,73,14.1,21.2,14.7,240,0.0,0.21858
2024-04-12,15:35,72.3,20.7,,72.3,14.2,24.1,17.7,241,0.0,0.2121
2024-04-12,15:40,72.1,19.9,,72.1,13.8,28.3,12.3,202,0.0,0.20478
2024-04-12,15:45,72.1,19.6,,72.1,13.6,21.7,11.6,243,0.0,0.19872
2024-04-12,15:50,71.3,19.1,,71.3,13.7,22.4,13.7,249,0.0,0.19374
2024-04-12,15:55,71.4,19.7,,71.4,14.0,17.6,12.3,271,0.0,0.1893
2024-04-12,16:00,72.1,19.9,,72.1,13.8,19,11.2,219,0.0,0.18402
2024-04-12,16:05,71.8,20,,71.8,14.0,20.3,9.4,236,0.0,0.18
2024-04-12,16:10,72,20.6,,72,14.3,22.1,15.9,203,0.0,0.17478
2024-04-12,16:15,71.7,21,,71.7,14.6,23.9,14.8,244,0.0,0.1707
2024-04-12,16:20,70.7,20.6,,70.7,14.9,16.3,11.5,259,0.0,0.16638
2024-04-12,16:25,71.7,21.1,,71.7,14.7,20,11.9,253,0.0,0.16116
2024-04-12,16:30,71.6,21.3,,71.6,14.9,22.5,11.9,256,0.0,0.15582
2024-04-12,16:35,71.3,21.3,,71.3,15.1,16.9,10.6,250,0.0,0.15108
2024-04-12,16:40,71.1,21.5,,71.1,15.3,19,11.9,260,0.0,0.14658
2024-04-12,16:45,71.1,21.5,,71.1,15.3,17.7,11.9,235,0.0,0.14142
2024-04-12,16:50,71.2,21.6,,71.2,15.3,25.6,10.4,219,0.0,0.13614
2024-04-12,16:55,71.4,21.6,,71.4,15.2,10.8,7.7,217,0.0,0.13212
2024-04-12,17:00,71.4,21.3,,71.4,15.0,14,8.7,244,0.0,0.12924
2024-04-12,17:05,71.5,20.4,,71.5,14.4,13.2,8,217,0.0,0.12408
2024-04-12,17:10,71.6,21.1,,71.6,14.7,18.2,9.9,194,0.0,0.1224
2024-04-12,17:15,71.5,19.9,,71.5,14.0,21.6,14.9,256,0.0,0.11916
2024-04-12,17:20,71.1,19,,71.1,13.7,17.9,11.5,251,0.0,0.11532
2024-04-12,17:25,71.6,19.2,,71.6,13.6,15.2,10.3,244,0.0,0.11328
2024-04-12,17:30,71.1,19,,71.1,13.7,22.9,9.5,247,0.0,0.11166
2024-04-12,17:35,71.7,19.5,,71.7,13.7,16,11.3,253,0.0,0.10818
2024-04-12,17:40,71.8,20.5,,71.8,14.3,13.1,7.8,214,0.0,0.10704
2024-04-12,17:45,70.9,21.1,,70.9,15.1,12.8,7.1,172,0.0,0.09192
2024-04-12,17:50,71.2,21.9,,71.2,15.5,20.5,10.4,197,0.0,0.06246
2024-04-12,17:55,70.1,22.2,,70.1,16.2,22.6,15.3,180,0.0,0.06336
2024-04-12,18:00,69.6,22.1,,69.6,16.5,19.6,11.4,187,0.0,0.0477
2024-04-12,18:05,69.1,22.2,,69.1,16.8,21.5,15.8,183,0.0,0.04704
2024-04-12,18:10,69,22.1,,69,16.8,22,15.1,179,0.0,0.04668
2024-04-12,18:15,68.3,21.8,,68.3,17.0,25,15.7,187,0.0,0.02646
2024-04-12,18:20,67.9,21.2,,67.9,16.8,18.5,11.5,197,0.0,0.02232
2024-04-12,18:25,67.7,21.7,,67.7,17.3,15.5,10.6,188,0.0,0.02658
2024-04-12,18:30,67.8,22.4,,67.8,17.8,13.4,8.9,167,0.0,0.03444
2024-04-12,18:35,67.7,23.1,,67.7,18.3,15.2,9.1,175,0.0,0.03174
2024-04-12,18:40,67.3,23.4,,67.3,18.8,13.7,7.5,195,0.0,0.01968
2024-04-12,18:45,66.8,23.3,,66.8,19.1,6.9,4.3,173,0.0,0.01164
2024-04-12,18:50,66.5,23.4,,66.5,19.4,11.4,6.6,158,0.0,0.00906
2024-04-12,18:55,66.1,23.4,,66.1,19.6,19.5,9.4,168,0.0,0.00582
2024-04-12,19:00,65.7,23.2,,65.7,19.7,27.6,9.7,207,0.0,0.00426
2024-04-12,19:05,65.7,22.7,,65.7,19.4,21,10.4,200,0.0,0.003
2024-04-12,19:10,64.7,22.9,,64.7,20.2,9.4,5.9,199,0.0,0.00156
2024-04-12,19:15,65,22.5,,65,19.7,18.4,8.1,175,0.0,0.00102
2024-04-12,19:20,65.5,21.8,,65.5,18.8,16.2,10.6,191,0.0,0.00048
2024-04-12,19:25,64.7,22.4,,64.7,19.8,12.4,8.8,173,0.0,0.00018
2024-04-12,19:30,63.8,22.9,,63.8,20.8,9,6.3,160,0.0,0
2024-04-12,19:35,63,22.9,,63,21.4,8,5.9,158,0.0,0
2024-04-12,19:40,63,22.9,,63,21.4,11.2,6.3,161,0.0,0
2024-04-12,19:45,63.4,22.9,,63.4,21.1,10,6.7,173,0.0,0
2024-04-12,19:50,62.4,22.9,,62.4,21.8,9.5,5.8,169,0.0,0
2024-04-12,19:55,62.3,22.7,,62.3,21.8,9,5.1,167,0.0,0
2024-04-12,20:00,63.2,22.3,,63.2,20.7,11.7,8.2,178,0.0,0
2024-04-12,20:05,62.6,22.5,,62.6,21.4,10.9,7.3,170,0.0,0
2024-04-12,20:10,63.5,22.3,,63.5,20.5,18.9,10.5,181,0.0,0
2024-04-12,20:15,63.8,22.3,,63.8,20.3,19.3,11.8,189,0.0,0
2024-04-12,20:20,64.7,22.3,,64.7,19.7,21.4,13.9,194,0.0,0
2024-04-12,20:25,65.2,21.7,,65.2,18.9,19.9,13.9,205,0.0,0
2024-04-12,20:30,65.7,21.5,,65.7,18.3,27.2,13.6,206,0.0,0
2024-04-12,20:35,65.1,21.2,,65.1,18.6,18,10.9,187,0.0,0
2024-04-12,20:40,63.4,22.2,,63.4,20.5,11.3,6.8,168,0.0,0
2024-04-12,20:45,62.2,22.3,,62.2,21.5,9.1,6.3,163,0.0,0
2024-04-12,20:50,61.4,22.3,,61.4,22.1,9.8,7.2,157,0.0,0
2024-04-12,20:55,60.6,22.3,,60.6,22.7,8.9,6.2,157,0.0,0
2024-04-12,21:00,60.4,22.4,,60.4,23.0,8.2,6,157,0.0,0
2024-04-12,21:05,59.2,22.3,,59.2,23.9,6.4,4.7,173,0.0,0
2024-04-12,21:10,58.2,22.3,,58.2,24.7,7.5,5,183,0.0,0
2024-04-12,21:15,58.1,22.3,,58.1,24.9,7.9,5.8,173,0.0,0
2024-04-12,21:20,57.8,22.3,,57.8,25.1,6.9,5.5,162,0.0,0
2024-04-12,21:25,58,22.3,,58,25.0,8,5.7,153,0.0,0
2024-04-12,21:30,58.1,22.3,,58.1,24.8,7.7,5.5,148,0.0,0
2024-04-12,21:35,58.4,22.7,,58.4,25.1,13.5,6.3,142,0.0,0
2024-04-12,21:40,58.6,23.2,,58.6,25.4,9.5,6.6,149,0.0,0
2024-04-12,21:45,58.5,23.5,,58.5,25.8,9.2,6.5,153,0.0,0
2024-04-12,21:50,58.5,23.9,,58.5,26.2,8.8,6.4,153,0.0,0
2024-04-12,21:55,58.5,23.9,,58.5,26.1,9.4,6,149,0.0,0
2024-04-12,22:00,58.6,24,,58.6,26.2,8.9,6.2,151,0.0,0
2024-04-12,22:05,58.6,24.1,,58.6,26.3,8.2,5.5,156,0.0,0
2024-04-12,22:10,58,24.1,,58,26.9,6.7,3.9,162,0.0,0
2024-04-12,22:15,58.1,24,,58.1,26.6,8.4,4.5,159,0.0,0
2024-04-12,22:20,57.6,24.3,,57.6,27.6,5.4,3,169,0.0,0
2024-04-12,22:25,57.2,24,,57.2,27.6,4.5,2.6,174,0.0,0
2024-04-12,22:30,56.9,24,,56.9,27.8,4,2.1,187,0.0,0
2024-04-12,22:35,56.8,24,,56.8,28.0,3.1,1.4,229,0.0,0
2024-04-12,22:40,56.1,24.5,,56.1,29.3,5.9,4.1,307,0.0,0
2024-04-12,22:45,55.8,25.4,,55.8,30.9,5.2,3.8,316,0.0,0
2024-04-12,22:50,56.6,25.2,,56.6,29.7,7.9,4.9,303,0.0,0
2024-04-12,22:55,56.8,24.2,,56.8,28.2,6,3,284,0.0,0
2024-04-12,23:00,55.6,25.5,,55.6,31.0,5.3,2.6,337,0.0,0
2024-04-12,23:05,55.2,25.7,,55.2,31.8,3.1,1.5,333,0.0,0
2024-04-12,23:10,54.5,25.6,,54.5,32.5,1.9,1.1,252,0.0,0
2024-04-12,23:15,54.4,25.4,,54.4,32.3,1.9,1,181,0.0,0
2024-04-12,23:20,55,25,,55,31.1,5.6,2.5,90,0.0,0
2024-04-12,23:25,55,24.7,,55,30.7,5.3,2.9,64,0.0,0
2024-04-12,23:30,54.2,24.5,,54.2,31.4,3.8,2.6,109,0.0,0
2024-04-12,23:35,53.6,24.4,,53.6,32.0,5.4,2.7,101,0.0,0
2024-04-12,23:40,53.5,24,,53.5,31.5,6.2,3.7,128,0.0,0
2024-04-12,23:45,53.8,24.1,,53.8,31.3,6.7,4.6,109,0.0,0
2024-04-12,23:50,53.7,24.4,,53.7,31.9,6.8,3.5,116,0.0,0
2024-04-12,23:55,53.1,24.4,,53.1,32.6,6.4,3.5,164,0.0,0
2024-04-13,00:00,53.3,24,,53.3,31.7,4.7,2.6,134,0.0,0
2024-04-13,00:05,52.7,24.2,,52.7,32.7,4.9,3,134,0.0,0
2024-04-13,00:10,52,24,,52,33.3,3.7,1.7,194,0.0,0
2024-04-13,00:15,51.9,23.6,,51.9,33.0,4,1.9,163,0.0,0
2024-04-13,00:20,51.7,23.8,,51.7,33.4,3.8,2.6,4,0.0,0
2024-04-13,00:25,51.4,23.9,,51.4,33.9,3.6,2.2,17,0.0,0
2024-04-13,00:30,52.1,24,,52.1,33.2,4.3,2.6,42,0.0,0
2024-04-13,00:35,51.5,24,,51.5,33.9,6.7,2.5,161,0.0,0
2024-04-13,00:40,53.2,23.9,,53.2,31.7,6.3,3.5,66,0.0,0
2024-04-13,00:45,53.6,23.3,,53.6,30.6,4.7,2.6,116,0.0,0
2024-04-13,00:50,52.2,23.9,,52.2,32.9,3.5,1.5,107,0.0,0
2024-04-13,00:55,51.8,23.4,,51.8,32.8,2.5,1.4,317,0.0,0
2024-04-13,01:00,52.4,23.4,,52.4,32.1,4.5,1.8,73,0.0,0
2024-04-13,01:05,53,23.5,,53,31.5,5.3,2.6,75,0.0,0
2024-04-13,01:10,51.1,24,,51.1,34.5,4.7,3.1,5,0.0,0
2024-04-13,01:15,50,24,,50,35.8,3.8,1.8,214,0.0,0
2024-04-13,01:20,49.9,23.9,,49.9,35.8,6.1,1.8,31,0.0,0
2024-04-13,01:25,48.9,23.6,,48.9,36.9,8.4,5.1,234,0.0,0
2024-04-13,01:30,49.4,24.2,,49.4,37.1,7.9,4.3,255,0.0,0
2024-04-13,01:35,48.7,23.5,,48.7,37,5,2.2,177,0.0,0
2024-04-13,01:40,48.8,23,,48.8,35.9,3,1.9,84,0.0,0
2024-04-13,01:45,48.5,23.4,,48.5,37.1,4.9,3.2,295,0.0,0
2024-04-13,01:50,48.2,23.6,,48.2,37.8,5.7,3.7,280,0.0,0
2024-04-13,01:55,48.3,23.5,,48.3,37.5,4.7,2.8,239,0.0,0
2024-04-13,02:00,48.4,23.6,,48.4,37.5,2.4,1,207,0.0,0
2024-04-13,02:05,47.6,23.4,,47.6,38.4,5.1,2.9,155,0.0,0
2024-04-13,02:10,47.8,23.4,,47.8,38.1,7.3,3.8,180,0.0,0
2024-04-13,02:15,48.2,23.4,,48.2,37.5,10.1,4,150,0.0,0
2024-04-13,02:20,48.5,23.4,,48.5,37.1,5.6,2.2,157,0.0,0
2024-04-13,02:25,49.6,23.4,,49.6,35.6,7.6,5.3,185,0.0,0
2024-04-13,02:30,49.8,23.3,,49.8,35.1,6.7,4.7,211,0.0,0
2024-04-13,02:35,50.7,22.9,,50.7,33.4,6.6,4.2,179,0.0,0
2024-04-13,02:40,49.7,22.9,,49.7,34.6,5.4,4.3,183,0.0,0
2024-04-13,02:45,51,22.7,,51,32.9,7.7,5.3,194,0.0,0
2024-04-13,02:50,51.3,22.3,,51.3,31.8,7.2,5.6,202,0.0,0
2024-04-13,02:55,50.8,22.3,,50.8,32.5,7,5.3,206,0.0,0
2024-04-13,03:00,50.1,22.3,,50.1,33.2,5.8,3.7,225,0.0,0
2024-04-13,03:05,50.5,21.7,,50.5,32.0,6,4.1,237,0.0,0
2024-04-13,03:10,50,21.7,,50,32.6,3.8,2.8,244,0.0,0
2024-04-13,03:15,50.2,21.7,,50.2,32.3,3.7,2.6,247,0.0,0
2024-04-13,03:20,49.1,21.2,,49.1,33.0,2.9,2.2,198,0.0,0
2024-04-13,03:25,49.4,21.1,,49.4,32.6,1.7,1.2,241,0.0,0
2024-04-13,03:30,49.8,21.1,,49.8,32.0,4.3,2.5,188,0.0,0
2024-04-13,03:35,50.2,21.5,,50.2,32.1,7.4,6,186,0.0,0
2024-04-13,03:40,47.7,21.7,,47.7,35.6,7.3,5.5,183,0.0,0
2024-04-13,03:45,46.9,21.7,,46.9,36.6,6.9,5.3,180,0.0,0
2024-04-13,03:50,46.9,21.7,,46.9,36.6,6.4,4.8,188,0.0,0
2024-04-13,03:55,47.9,21.7,,47.9,35.3,7.1,5.3,184,0.0,0
2024-04-13,04:00,46.7,21.8,,46.7,37.1,4.8,3.8,182,0.0,0
2024-04-13,04:05,45.9,21.7,,45.9,38.0,5.2,3.4,171,0.0,0
2024-04-13,04:10,45.2,21.8,,45.2,39.3,4.7,3.6,175,0.0,0
2024-04-13,04:15,44.2,21.6,,44.2,40.4,5,4.1,176,0.0,0
2024-04-13,04:20,44.5,21.6,,44.5,39.9,5.3,4,173,0.0,0
2024-04-13,04:25,43.4,21.4,,43.4,41.1,5.5,4.5,180,0.0,0
2024-04-13,04:30,44.7,21.7,,44.7,39.8,7.6,5.7,184,0.0,0
2024-04-13,04:35,44.1,21.7,,44.1,40.7,6.2,5.4,183,0.0,0
2024-04-13,04:40,43.7,21.8,,43.7,41.5,6.2,4,195,0.0,0
2024-04-13,04:45,42.9,21.7,,42.9,42.6,3.3,2.3,294,0.0,0
2024-04-13,04:50,43.9,21.8,,43.9,41.2,4.1,3.3,216,0.0,0
2024-04-13,04:55,43.4,22.2,,43.4,42.6,3.5,2.2,201,0.0,0
2024-04-13,05:00,43.2,22,,43.2,42.5,4.6,2.5,196,0.0,0
2024-04-13,05:05,44.4,22.3,,44.4,41.3,5.9,5.1,184,0.0,0
2024-04-13,05:10,41.6,22,,41.6,45.3,9.3,4.5,248,0.0,0
2024-04-13,05:15,40.7,21.7,,40.7,46.4,6,3,331,0.0,0
2024-04-13,05:20,39.9,22,,39.9,48.4,5.4,3.4,340,0.0,0
2024-04-13,05:25,40.1,21.8,,40.1,47.8,2.9,2.1,320,0.0,0
2024-04-13,05:30,39.8,21.7,,39.8,48.1,2.3,1.5,267,0.0,0
2024-04-13,05:35,39.3,21.7,,39.3,48.9,3.3,2.4,179,0.0,0
2024-04-13,05:40,37.3,20.8,,37.3,50.9,4.5,3.3,171,0.0,0
2024-04-13,05:45,37.2,20.4,,37.2,50.3,4.6,3.4,171,0.0,0
2024-04-13,05:50,37.7,20,,37.7,48.6,2,1.5,154,0.0,0
2024-04-13,05:55,38.3,20.5,,38.3,48.3,4.5,2.7,160,0.0,0
2024-04-13,06:00,37,20.5,,37,50.9,4.1,3.4,160,0.0,0
2024-04-13,06:05,36.7,20.5,,36.7,51.5,4.2,2.1,144,0.0,0.00012
2024-04-13,06:10,36.5,20.3,,36.5,51.5,4.4,2.2,189,0.0,0.00048
2024-04-13,06:15,36.5,20.5,,36.5,52.0,3.4,2.5,166,0.0,0.00114
2024-04-13,06:20,35.2,19.9,,35.2,53.2,4.8,3.4,163,0.0,0.00198
2024-04-13,06:25,35.5,20.1,,35.5,53.3,7,3.6,261,0.0,0.00276
2024-04-13,06:30,35.2,20.3,,35.2,54.1,5.8,2.9,345,0.0,0.00372
2024-04-13,06:35,34.7,20.4,,34.7,55.4,5.2,2.8,149,0.0,0.00558
2024-04-13,06:40,35.2,19.9,,35.2,53.3,6.6,5.1,163,0.0,0.0117
2024-04-13,06:45,36.6,20.4,,36.6,51.5,5.7,4.1,167,0.0,0.01518
2024-04-13,06:50,38,21.4,,38,50.8,8.6,5.3,167,0.0,0.01896
2024-04-13,06:55,39.8,22.2,,39.8,48.9,9.8,7.5,176,0.0,0.02256
2024-04-13,07:00,41,23.2,,41,48.9,7.5,5.9,179,0.0,0.02646
2024-04-13,07:05,41.8,24.1,,41.8,49.1,7.8,5.3,182,0.0,0.03036
2024-04-13,07:10,43.1,24.9,,43.1,48.5,8.4,5.7,185,0.0,0.03456
2024-04-13,07:15,43,25.8,,43,50.3,6.7,4.2,266,0.0,0.0387
2024-04-13,07:20,41.3,26.1,,41.3,54.5,7.5,4.1,313,0.0,0.04296
2024-04-13,07:25,40.6,26.2,,40.6,56.2,4.5,3.5,323,0.0,0.0474
2024-04-13,07:30,42.4,26.8,,42.4,53.7,3.4,2.5,289,0.0,0.05202
2024-04-13,07:35,43.2,27.6,,43.2,53.7,3.5,2.3,321,0.0,0.05676
2024-04-13,07:40,44.4,28,,44.4,52.4,4.3,2.9,311,0.0,0.06168